Home   Weather   Thun   Past weeks

Flag for Switzerland Past Weather in Thun, Bern, Switzerland — Yesterday and Last 2 Weeks

Now
75 °F

Broken clouds.


Feels Like: 77 °F
Forecast: 63 / 78 °F
Wind: 2 mph from North

Location: Bern / Belp

Current Time: Jul 22, 2017 at 8:56:00 pm

Latest Report: Jul 22, 2017 at 8:20 pm


Visibility: N/A

Pressure: 29.98 "Hg (28.12 "Hg at 557m altitude)

Humidity: 65%

Dew Point: 63 °F

Location of ThunLocation

Past Weather in Thun — Graph

°F

Thun Temperature Yesterday

Maximum temperature yesterday: 82 °F (at 2:20 pm)
Minimum temperature yesterday: 57 °F (at 6:20 am)
Average temperature yesterday: 67 °F

High & Low Weather Summary for the Past Weeks

 TemperatureHumidityPressure
High91 °F (Jul 8, 3:20 pm)100% (Jul 10, 12:20 am)30.30 "Hg (Jul 10, 12:20 am)
Low48 °F (Jul 16, 3:20 am)31% (Jul 19, 3:50 pm)29.86 "Hg (Jul 10, 7:50 pm)
Average68 °F73%30.06 "Hg
* Reported Jul 7 7:20 pm — Jul 22 7:50 pm, Thun. Weather by CustomWeather, © 2017

Note: Actual official high and low records may vary slightly from our data, if they occured in-between our weather recording intervals... More about our weather records

Advertising

Thun Weather History for the Previous 24 Hours

Scroll right to see more
 ConditionsComfort  
Time TempWeatherWind HumidityBarometerVisibility
7:50 pm
Sat, Jul 22
75 °FBroken clouds.2 mph65%29.98 "HgN/A
7:20 pm77 °FThundershowers. Broken clouds.2 mph57%29.98 "HgN/A
6:50 pm77 °FBroken clouds.6 mph61%29.98 "HgN/A
6:20 pm77 °FBroken clouds.2 mph57%29.98 "HgN/A
5:50 pm79 °FBroken clouds.3 mph58%29.98 "HgN/A
5:20 pm79 °FBroken clouds.2 mph54%29.98 "HgN/A
4:50 pm79 °FBroken clouds.3 mph54%29.98 "HgN/A
4:20 pm79 °FBroken clouds.6 mph58%29.98 "HgN/A
3:50 pm79 °FBroken clouds.7 mph58%29.98 "HgN/A
2:50 pm81 °FPassing clouds.3 mph58%29.98 "HgN/A
2:20 pm79 °FPassing clouds.2 mph58%29.98 "HgN/A
1:50 pm77 °FPassing clouds.3 mph61%29.98 "HgN/A
1:20 pm75 °FPassing clouds.5 mph61%30.01 "HgN/A
12:50 pm73 °FPassing clouds.2 mph65%30.01 "HgN/A
12:20 pm73 °FPassing clouds.5 mph69%30.01 "HgN/A
11:50 am72 °FPassing clouds.3 mph65%30.01 "HgN/A
11:20 am70 °FPassing clouds.2 mph73%30.01 "HgN/A
10:50 am68 °FPassing clouds.2 mph73%30.01 "HgN/A
10:20 am68 °FScattered clouds.2 mph78%30.01 "HgN/A
9:50 am66 °FScattered clouds.2 mph83%30.01 "HgN/A
9:20 am66 °FScattered clouds.2 mph83%30.04 "HgN/A
8:50 am64 °FScattered clouds.5 mph88%30.01 "HgN/A
8:20 am63 °FPassing clouds.5 mph94%30.01 "HgN/A
7:50 am59 °FLight fog.6 mph100%30.01 "HgN/A
6:50 am57 °FCool.5 mph100%30.01 "HgN/A
6:20 am59 °FFog.No wind94%30.01 "Hg0 mi
5:50 am57 °FCool.2 mph100%30.01 "HgN/A
5:20 am57 °FFog.No wind100%29.98 "Hg0 mi
4:50 am59 °FClear.2 mph94%29.98 "Hg10 mi
4:20 am59 °FFog.1 mph100%29.98 "Hg3 mi
3:50 am61 °FCool.1 mph94%29.98 "Hg6 mi
3:20 am61 °FCool.1 mph100%29.98 "Hg4 mi
2:20 am63 °FPartly cloudy.2 mph94%29.98 "Hg6 mi
1:50 am63 °FPartly cloudy.3 mph94%29.98 "HgN/A
12:50 am63 °FLight rain. Partly cloudy.1 mph94%29.98 "HgN/A
12:20 am63 °FLight rain. Passing clouds.5 mph94%29.98 "HgN/A
11:50 pm
Fri, Jul 21
63 °FPassing clouds.6 mph94%29.98 "HgN/A
11:20 pm63 °FLight rain. Partly cloudy.2 mph94%29.98 "HgN/A
10:50 pm63 °FLight rain. Partly cloudy.3 mph94%29.98 "HgN/A
10:20 pm63 °FLight rain. Partly cloudy.9 mph94%29.98 "HgN/A
9:50 pm64 °FPassing clouds.6 mph88%29.95 "HgN/A
9:20 pm64 °FPassing clouds.6 mph88%29.95 "HgN/A
8:50 pm64 °FBroken clouds.7 mph88%29.95 "HgN/A
8:20 pm64 °FBroken clouds.9 mph88%29.95 "HgN/A
Weather by CustomWeather, © 2017

See weather overviewHow to use our weather pages